Weather History for Le Mars, IA

Change the Weather History Date:

Friday, January 31, 2014

  Actual Average Record
Temperature  
Mean Temperature 13 °F -  
Max Temperature 21 °F 28 °F 55 °F (1987)
Min Temperature 5 °F 7 °F -21 °F (1980)
Degree Days  
Heating Degree Days 52    
Moisture  
Dew Point 3 °F    
Average Humidity 67    
Maximum Humidity 79    
Minimum Humidity 53    
Precipitation  
Precipitation 0.00 in - - ()
Sea Level Pressure  
Sea Level Pressure 30.06 in    
Wind  
Wind Speed 6 mph (South)    
Max Wind Speed 12 mph    
Max Gust Speed -    
Visibility 10 miles    
Events      
Averages and records for this station are not official NWS values.
T = Trace of Precipitation, MM = Missing Value Source: NWS Daily Summary

Daily Weather History Graph

Daily Weather History Graph

Search for Another Location

Airport:

Trip Planner

Search our weather history database for the weather conditions in past years. The results will help you decide how hot, cold, wet, or windy it might be!

Date:

Astronomy

Jan. 31, 2014 Rise Set
Actual Time 7:40 AM CST 5:36 PM CST
Civil Twilight 7:10 AM CST 6:06 PM CST
Nautical Twilight 6:36 AM CST 6:40 PM CST
Astronomical Twilight 6:03 AM CST 7:13 PM CST
Moon 7:48 AM CST (1/31) 7:05 PM CST (1/31)
Length of Visible Light 10h 56m
Length of Day
9h 56m
New Moon, 1% of the Moon is Illuminated
Jan 31
New Moon
Feb 6
First Quarter
Feb 14
Full
Feb 22
Last Quarter
Mar 1
New

Hourly Weather History & Observations

Time (CST) Temp. Windchill Dew Point Humidity Pressure Visibility Wind Dir Wind Speed Gust Speed Precip Events Conditions
12:15 AM 8.6 °F -3.7 °F 1.4 °F 73% 30.11 in 10.0 mi North 8.1 mph - N/A   Clear
12:35 AM 6.8 °F -7.8 °F 1.4 °F 79% 30.10 in 10.0 mi North 10.4 mph - N/A   Clear
12:55 AM 6.8 °F -8.6 °F -0.4 °F 72% 30.10 in 10.0 mi North 11.5 mph - N/A   Clear
1:15 AM 6.8 °F -5.9 °F -0.4 °F 72% 30.09 in 10.0 mi North 8.1 mph - N/A   Clear
1:35 AM 5.0 °F -10.0 °F -0.4 °F 78% 30.09 in 10.0 mi North 10.4 mph - N/A   Clear
1:55 AM 5.0 °F -9.1 °F -0.4 °F 78% 30.09 in 10.0 mi North 9.2 mph - N/A   Clear
2:15 AM 5.0 °F -6.9 °F -0.4 °F 78% 30.08 in 10.0 mi North 6.9 mph - N/A   Clear
2:35 AM 5.0 °F -5.6 °F -0.4 °F 78% 30.09 in 10.0 mi NNE 5.8 mph - N/A   Clear
2:55 AM 5.0 °F -4.1 °F -0.4 °F 78% 30.10 in 10.0 mi NNE 4.6 mph - N/A   Clear
3:15 AM 5.0 °F - -0.4 °F 78% 30.09 in 10.0 mi Calm Calm - N/A   Clear
3:35 AM 6.8 °F - -0.4 °F 72% 30.10 in 10.0 mi Calm Calm - N/A   Partly Cloudy
3:55 AM 6.8 °F -3.5 °F -2.2 °F 67% 30.10 in 10.0 mi NNE 5.8 mph - N/A   Partly Cloudy
4:15 AM 5.0 °F -5.6 °F -2.2 °F 72% 30.09 in 10.0 mi NE 5.8 mph - N/A   Clear
4:35 AM 6.8 °F - -2.2 °F 67% 30.10 in 10.0 mi Calm Calm - N/A   Partly Cloudy
4:55 AM 6.8 °F - -0.4 °F 72% 30.10 in 10.0 mi Calm Calm - N/A   Scattered Clouds
5:15 AM 6.8 °F - -0.4 °F 72% 30.10 in 10.0 mi Calm Calm - N/A   Mostly Cloudy
5:35 AM 5.0 °F - -0.4 °F 78% 30.11 in 10.0 mi Calm Calm - N/A   Scattered Clouds
5:55 AM 5.0 °F - -0.4 °F 78% 30.12 in 10.0 mi Calm Calm - N/A   Clear
6:15 AM 5.0 °F - -0.4 °F 78% 30.12 in 10.0 mi Calm Calm - N/A   Clear
6:35 AM 5.0 °F - -0.4 °F 78% 30.11 in 10.0 mi Calm Calm - N/A   Clear
6:55 AM 5.0 °F - -0.4 °F 78% 30.12 in 10.0 mi Calm Calm - N/A   Clear
7:15 AM 5.0 °F -2.1 °F -0.4 °F 78% 30.13 in 10.0 mi South 3.5 mph - N/A   Clear
7:35 AM 5.0 °F -2.1 °F -0.4 °F 78% 30.14 in 10.0 mi South 3.5 mph - N/A   Clear
7:55 AM 5.0 °F -4.1 °F -0.4 °F 78% 30.15 in 10.0 mi SSW 4.6 mph - N/A   Clear
8:15 AM 5.0 °F - -0.4 °F 78% 30.14 in 10.0 mi Calm Calm - N/A   Clear
8:35 AM 6.8 °F -2.0 °F -0.4 °F 72% 30.16 in 10.0 mi SSW 4.6 mph - N/A   Clear
8:55 AM 6.8 °F -0.1 °F -0.4 °F 72% 30.16 in 10.0 mi SSW 3.5 mph - N/A   Clear
9:15 AM 6.8 °F -2.0 °F -0.4 °F 72% 30.16 in 10.0 mi SSW 4.6 mph - N/A   Clear
9:35 AM 8.6 °F -1.3 °F -0.4 °F 67% 30.15 in 10.0 mi SSW 5.8 mph - N/A   Clear
9:55 AM 8.6 °F -2.6 °F -0.4 °F 67% 30.15 in 10.0 mi SSW 6.9 mph - N/A   Clear
10:15 AM 8.6 °F -2.6 °F -0.4 °F 67% 30.15 in 10.0 mi South 6.9 mph - N/A   Clear
10:35 AM 10.4 °F -0.4 °F -0.4 °F 62% 30.15 in 10.0 mi SSW 6.9 mph - N/A   Clear
10:55 AM 10.4 °F -0.4 °F -0.4 °F 62% 30.16 in 10.0 mi SSW 6.9 mph - N/A   Clear
11:15 AM 10.4 °F 0.8 °F 1.4 °F 67% 30.15 in 10.0 mi South 5.8 mph - N/A   Clear
11:35 AM 12.2 °F -0.2 °F 1.4 °F 62% 30.16 in 10.0 mi SSW 9.2 mph - N/A   Clear
11:55 AM 14.0 °F 2.9 °F 3.2 °F 62% 30.14 in 10.0 mi South 8.1 mph - N/A   Clear
12:15 PM 14.0 °F 1.2 °F 3.2 °F 62% 30.12 in 10.0 mi SSW 10.4 mph - N/A   Clear
12:35 PM 14.0 °F 1.2 °F 3.2 °F 62% 30.10 in 10.0 mi South 10.4 mph - N/A   Clear
12:55 PM 15.8 °F 4.2 °F 5.0 °F 62% 30.08 in 10.0 mi SSW 9.2 mph - N/A   Clear
1:15 PM 15.8 °F 6.1 °F 5.0 °F 62% 30.07 in - SSW 6.9 mph - N/A   Clear
1:35 PM 17.6 °F 7.3 °F 5.0 °F 58% 30.06 in 10.0 mi South 8.1 mph - N/A   Clear
1:55 PM 17.6 °F 8.2 °F 6.8 °F 63% 30.05 in 10.0 mi SW 6.9 mph - N/A   Clear
2:15 PM 19.4 °F 10.4 °F 6.8 °F 58% 30.05 in 10.0 mi SSW 6.9 mph - N/A   Clear
2:35 PM 19.4 °F 11.5 °F 6.8 °F 58% 30.04 in 10.0 mi South 5.8 mph - N/A   Clear
2:55 PM 19.4 °F 14.3 °F 6.8 °F 58% 30.03 in 10.0 mi Variable 3.5 mph - N/A   Clear
3:15 PM 21.2 °F - 6.8 °F 54% 30.01 in 10.0 mi Calm Calm - N/A   Clear
3:35 PM 21.2 °F 14.9 °F 6.8 °F 54% 30.01 in 10.0 mi SSW 4.6 mph - N/A   Clear
3:55 PM 21.2 °F 13.6 °F 6.8 °F 54% 30.01 in 10.0 mi South 5.8 mph - N/A   Clear
4:15 PM 21.2 °F 13.6 °F 6.8 °F 54% 30.00 in 10.0 mi South 5.8 mph - N/A   Clear
4:35 PM 19.4 °F 11.5 °F 6.8 °F 58% 30.00 in 10.0 mi South 5.8 mph - N/A   Clear
4:55 PM 19.4 °F 12.8 °F 6.8 °F 58% 30.00 in 10.0 mi South 4.6 mph - N/A   Clear
5:15 PM 19.4 °F 11.5 °F 5.0 °F 54% 29.99 in 10.0 mi SSE 5.8 mph - N/A   Clear
5:35 PM 19.4 °F 14.3 °F 6.8 °F 58% 29.98 in 10.0 mi SE 3.5 mph - N/A   Clear
5:55 PM 17.6 °F 10.7 °F 5.0 °F 58% 29.98 in 10.0 mi SSE 4.6 mph - N/A   Clear
6:15 PM 17.6 °F 9.3 °F 6.8 °F 63% 29.99 in 10.0 mi SSE 5.8 mph - N/A   Clear
6:35 PM 17.6 °F 10.7 °F 5.0 °F 58% 29.99 in 10.0 mi SSE 4.6 mph - N/A   Scattered Clouds
6:55 PM 17.6 °F 10.7 °F 5.0 °F 58% 29.98 in 10.0 mi SE 4.6 mph - N/A   Partly Cloudy
7:15 PM 19.4 °F 11.5 °F 5.0 °F 54% 29.98 in 10.0 mi SE 5.8 mph - N/A   Clear
7:35 PM 17.6 °F 9.3 °F 3.2 °F 53% 29.98 in 10.0 mi SE 5.8 mph - N/A   Clear
7:55 PM 17.6 °F 8.2 °F 5.0 °F 58% 29.98 in 10.0 mi SE 6.9 mph - N/A   Clear
8:15 PM 17.6 °F 8.2 °F 5.0 °F 58% 29.98 in 10.0 mi SE 6.9 mph - N/A   Scattered Clouds
8:35 PM 17.6 °F 7.3 °F 5.0 °F 58% 29.97 in 10.0 mi SE 8.1 mph - N/A   Scattered Clouds
8:55 PM 15.8 °F 7.2 °F 5.0 °F 62% 29.98 in 10.0 mi SSE 5.8 mph - N/A   Scattered Clouds
9:15 PM 15.8 °F 8.6 °F 6.8 °F 68% 29.98 in 10.0 mi SSW 4.6 mph - N/A   Mostly Cloudy
9:35 PM 15.8 °F 10.2 °F 6.8 °F 68% 29.99 in 10.0 mi SSW 3.5 mph - N/A   Overcast
9:55 PM 15.8 °F - 8.6 °F 73% 29.98 in 10.0 mi Calm Calm - N/A   Overcast
10:15 PM 17.6 °F - 8.6 °F 68% 29.97 in 10.0 mi Calm Calm - N/A   Overcast
10:35 PM 17.6 °F - 8.6 °F 68% 29.97 in 10.0 mi Calm Calm - N/A   Overcast
10:55 PM 17.6 °F 12.3 °F 10.4 °F 73% 29.95 in 10.0 mi South 3.5 mph - N/A   Overcast
11:15 PM 19.4 °F 12.8 °F 8.6 °F 63% 29.95 in 10.0 mi SSE 4.6 mph - N/A   Overcast
11:35 PM 19.4 °F 12.8 °F 8.6 °F 63% 29.95 in 10.0 mi South 4.6 mph - N/A   Overcast
11:55 PM 19.4 °F 12.8 °F 8.6 °F 63% 29.95 in 10.0 mi South 4.6 mph - N/A   Overcast